Terminal Aerodrome Forecast
Issued by NWS North Platte, NE

Home | Current Version | Previous Version | Text Only | Print | Product List | Glossary On
Versions: 1 2 3 4 5 6 7 8 9 10 11 12 13 14 15
000
FTUS43 KLBF 271100 RRA
TAFLBF
TAF
KLBF 271144Z 2712/2812 14008KT P6SM FEW100 SCT200
     FM271800 18008KT P6SM SCT200=

USA.gov is the U.S. government's official web portal to all federal, state and local government web resources and services.